Location: Go?cza
(50.3372°N, 19.9313°E)
Time: 00:42:11
(UTC+00:00)

Cosmos 1408 - Pass Details

Date: 23 May 2024
Orbit: 362 x 376 km, 82.6° (Epoch: 18 June)

Event Time Altitude Azimuth Distance (km) Brightness Sun altitude
Exits shadow 01:26:15 16° 216° (SW) 1,080 3.7 -9.8°
Maximum altitude 01:28:21 42° 283° (WNW) 538 2.6 -9.6°
Drops below altitude 10° 01:31:11 10° 357° (N) 1,365 5.6 -9.3°
Sets 01:33:14 0° 5° (N) 2,219 6.9 -9.1°
